Location: Observatory
(52.1446°N, 0.4624°W)
Time: 18:51:58
(UTC+00:00)

ISS - Pass Details

Date: 25 November 2021
Orbit: 417 x 422 km, 51.6° (Epoch: 06 December)

Event Time Altitude Azimuth Distance (km) Brightness Sun altitude
Rises 19:11:18 0° 268° (W) 2,378 1.3 -28.9°
Reaches altitude 10° 19:13:24 10° 268° (W) 1,512 0.0 -29.2°
Enters shadow 19:14:19 17° 267° (W) 1,144 -0.8 -29.4°
